THOR ABLESTAR R/B, 703

Orbit data source: Space-Track

THOR ABLESTAR R/B, 703 is space debris in LEO originally from a launch on Thu, 05 Dec 1963 UTC launched from the Air Force Western Test Range (AFWTR). Debris objects in space refer to the collection of defunct objects orbiting the Earth. Examples of debris include non-operational satellites, rocket bodies, and fragments generated from explosions, collisions, or faulty payload assembly.

Loading next visibility...
Identifier
703, 1963-049A
Orbit
LEO
Country
Flag of USUS
Related business
Manufacturer
Aerojet
Mission
Spacecraft
Bus & Motor
ABLESTAR, Unknown motor
Mass
~600 kg wet, 600 kg dry
Launch date (UTC)
1963-12-05 (62 years ago)
Launch vehicle
Unknown
Launch site
Air Force Western Test Range (AFWTR)
Object type
Payload
Rocket body
Debris
Shape & HBR
Unknown
Radar Cross Section
Large (>1 m²)

Expand to show TLE details & history
Last TLE update: 6 hours ago

TLE from 6 hours ago
0 THOR ABLESTAR R/B
1   703U 63049A   25299.82649419  .00000064  00000-0  86200-4 0  9992
2   703  89.9219  72.0311 0014809 219.3631 306.1834 13.49982286 47773
Epoch: 2025-10-26T19:50Z
TLE epoch observation values (Epoch: 2025-10-26T19:50:09.098Z)
Latitude
14.5619°
Longitude
-80.96411°
Altitude
1,068.06 km
Speed
7.322 km/s
True Right ascension
16h 48m 02s
True Declination
14° 28' 55"
Sunlit
Object was in daylight at epoch
Visualization orbit readout
Latitude
Unknown
Longitude
Unknown
Altitude
Unknown
Speed
Unknown
Apparent Right ascension
Unknown
Apparent Declination
Unknown
Sunlit
N/A
Visualization observer readout
Local Sidereal Time
21:23:12
Azimuth
Unknown
Elevation
Unknown
Doppler factor
Unknown
Orbital elements
Apogee altitude
1,080.403 km
Perigee altitude
1,058.345 km
Semi-major axis
7,447.511 km
Eccentricity
0.00148
Inclination
89.9219°
RAAN
72.0311°
Arg. of periapsis
219.3631°
True anomaly
306.04628°
Mean anomaly
306.1834°
Eccentric anomaly
306.11486°
Mean motion
3.37696 °/min
Orbital period
106.6 mins
BSTAR
0.0000862
Loading maneuver chart data...
Computing Atmospheric mass density...
Loading historical data...
Loading historical data...
Loading historical data...
Loading historical data...
Loading historical data...
Loading historical data...
Loading historical data...

Documentation

Showing up to 5 results
|